Weather History for Nellis AFB, NV

Change the Weather History Date:

Tuesday, March 19, 2013

  Actual Average Record
Temperature  
Mean Temperature 68 °F -  
Max Temperature 77 °F 74 °F 87 °F (2004)
Min Temperature 58 °F 47 °F 32 °F (2002)
Cooling Degree Days 2    
Growing Degree Days 18 (Base 50)    
Moisture  
Dew Point 21 °F    
Average Humidity 17    
Maximum Humidity 25    
Minimum Humidity 12    
Precipitation  
Precipitation 0.00 in - - ()
Sea Level Pressure  
Sea Level Pressure 29.93 in    
Wind  
Wind Speed 7 mph (NE)    
Max Wind Speed 18 mph    
Max Gust Speed 24 mph    
Visibility 10 miles    
Events      
Averages and records for this station are not official NWS values.
T = Trace of Precipitation, MM = Missing Value Source: NWS Daily Summary

Daily Weather History Graph

Daily Weather History Graph

Search for Another Location

Airport:

Trip Planner

Search our weather history database for the weather conditions in past years. The results will help you decide how hot, cold, wet, or windy it might be!

Date:

Astronomy

Mar. 19, 2013 Rise Set
Actual Time 6:44 AM PDT 6:51 PM PDT
Civil Twilight 6:19 AM PDT 7:17 PM PDT
Nautical Twilight 5:49 AM PDT 7:46 PM PDT
Astronomical Twilight 5:18 AM PDT 8:17 PM PDT
Moon 11:48 AM PDT (3/19) 1:31 AM PDT (3/19)
Length of Visible Light 12h 57m
Length of Day
12h 06m
Waxing Crescent, 51% of the Moon is Illuminated
Mar 19
Waxing Crescent
Mar 27
Full
Apr 2
Last Quarter
Apr 10
New
Apr 18
First Quarter

Hourly Weather History & Observations

Time (PDT) Temp. Dew Point Humidity Pressure Visibility Wind Dir Wind Speed Gust Speed Precip Events Conditions
12:58 AM 61.3 °F 19.0 °F 20% 29.86 in 10.0 mi NNE 3.5 mph - N/A   Overcast
1:58 AM 61.9 °F 16.9 °F 17% 29.86 in 10.0 mi ENE 5.8 mph - N/A   Overcast
2:58 AM 64.0 °F 15.8 °F 15% 29.84 in 10.0 mi East 8.1 mph - N/A   Partly Cloudy
3:58 AM 63.1 °F 16.2 °F 16% 29.84 in 10.0 mi ENE 8.1 mph - N/A   Overcast
4:58 AM 63.1 °F 16.5 °F 16% 29.87 in 10.0 mi NNE 2.3 mph - N/A   Mostly Cloudy
5:58 AM 58.6 °F 21.4 °F 24% 29.88 in 10.0 mi East 6.9 mph - N/A   Partly Cloudy
6:58 AM 61.0 °F 18.1 °F 19% 29.91 in 10.0 mi East 9.2 mph - N/A   Mostly Cloudy
7:58 AM 62.2 °F 18.3 °F 18% 29.94 in 10.0 mi ENE 9.2 mph - N/A   Overcast
8:58 AM 65.7 °F 20.8 °F 18% 29.97 in 10.0 mi Variable 1.2 mph - N/A   Clear
9:58 AM 71.8 °F 18.9 °F 13% 29.99 in 10.0 mi NNE 16.1 mph 24.2 mph N/A   Clear
10:58 AM 72.9 °F 21.4 °F 14% 29.99 in 10.0 mi NNE 16.1 mph - N/A   Clear
11:58 AM 74.5 °F 22.3 °F 14% 29.99 in 10.0 mi NNE 15.0 mph 21.9 mph N/A   Clear
12:58 PM 76.6 °F 20.8 °F 12% 29.98 in 10.0 mi NE 18.4 mph - N/A   Clear
1:08 PM 77.0 °F 21.2 °F 12% 30.01 in 10.0 mi ENE 16.1 mph - N/A   Clear
1:58 PM 76.6 °F 21.9 °F 13% 29.96 in 10.0 mi ENE 10.4 mph - N/A   Clear
2:58 PM 76.5 °F 22.1 °F 13% 29.94 in 10.0 mi East 5.8 mph - N/A   Clear
3:58 PM 77.4 °F 21.4 °F 12% 29.94 in 10.0 mi East 8.1 mph - N/A   Clear
4:58 PM 77.0 °F 23.0 °F 13% 29.93 in 10.0 mi North 5.8 mph - N/A   Clear
5:58 PM 76.3 °F 22.5 °F 13% 29.93 in 10.0 mi NNE 1.2 mph - N/A   Clear
6:58 PM 75.4 °F 21.7 °F 13% 29.93 in 10.0 mi NE 1.2 mph - N/A   Clear
7:58 PM 68.7 °F 23.9 °F 18% 29.94 in 10.0 mi NE 6.9 mph - N/A   Clear
8:58 PM 66.6 °F 24.6 °F 20% 29.96 in 10.0 mi NE 11.5 mph - N/A   Clear
9:58 PM 65.5 °F 24.8 °F 21% 29.97 in 10.0 mi NE 8.1 mph - N/A   Scattered Clouds
10:58 PM 61.9 °F 25.7 °F 25% 29.98 in 10.0 mi NE 4.6 mph - N/A   Partly Cloudy
11:58 PM 63.1 °F 26.1 °F 25% 29.96 in 10.0 mi NNE 3.5 mph - N/A   Scattered Clouds